Location: Gajan
(43.0218°N, 1.1244°E)
Time: 07:31:30
(UTC+00:00)

Cosmos 2251 Rocket - Pass Details

Date: 22 April 2021
Orbit: 765 x 791 km, 74.0° (Epoch: 07 May)

Event Time Altitude Azimuth Distance (km) Brightness Sun altitude
Rises 19:18:53 0° 193° (SSW) 3,272 6.7 -6.4°
Reaches altitude 10° 19:21:17 10° 192° (SSW) 2,345 5.9 -6.8°
Maximum altitude 19:26:36 75° 108° (ESE) 818 3.5 -7.7°
Drops below altitude 10° 19:31:56 10° 24° (NNE) 2,349 6.1 -8.5°
Sets 19:34:19 0° 22° (NNE) 3,277 6.8 -8.9°
